FREGAT DEB, 46238

Orbit data source: Space-Track

FREGAT DEB, 46238 is space debris in LEO originally from a launch on Mon, 18 Jul 2011 UTC launched from the Tyuratam Missile And Space Complex (TTMTR). Debris objects in space refer to the collection of defunct objects orbiting the Earth. Examples of debris include non-operational satellites, rocket bodies, and fragments generated from explosions, collisions, or faulty payload assembly.

Loading next visibility...
Identifier
46238, 2011-037JY
Orbit
LEO
Country
Flag of CISCIS
Related business
Manufacturer
Lavochkin
Mission
Spacecraft
Bus & Motor
Unknown
Mass
Unknown
Launch date (UTC)
2011-07-18 (14 years ago)
Launch vehicle
Unknown
Launch site
Tyuratam Missile And Space Complex (TTMTR)
Object type
Payload
Rocket body
Debris
Shape & HBR
Unknown shape, 0.1 m
Radar Cross Section
Medium (>0.1 m² and <1 m²)

Expand to show TLE details & history
Last TLE update: 3 weeks ago

TLE from 3 weeks ago
0 FREGAT DEB
1 46238U 11037JY  25271.49956856  .00008909  00000-0  66397+0 0  9990
2 46238  50.5053  97.7006 0367752   2.6892 357.5729 10.32774711194655
Epoch: 2025-09-28T11:59Z
TLE epoch observation values (Epoch: 2025-09-28T11:59:22.723Z)
Latitude
-0.00008°
Longitude
-89.6609°
Altitude
2,202.103 km
Speed
6.942 km/s
True Right ascension
06h 30m 48s
True Declination
0° 00' 00"
Sunlit
Object was in daylight at epoch
Visualization orbit readout
Latitude
Unknown
Longitude
Unknown
Altitude
Unknown
Speed
Unknown
Apparent Right ascension
Unknown
Apparent Declination
Unknown
Sunlit
N/A
Visualization observer readout
Local Sidereal Time
05:40:20
Azimuth
Unknown
Elevation
Unknown
Doppler factor
Unknown
Orbital elements
Apogee altitude
2,856.974 km
Perigee altitude
2,201.821 km
Semi-major axis
8,907.534 km
Eccentricity
0.03678
Inclination
50.5053°
RAAN
97.7006°
Arg. of periapsis
2.6892°
True anomaly
357.38587°
Mean anomaly
357.5729°
Eccentric anomaly
357.48027°
Mean motion
2.58171 °/min
Orbital period
139.44 mins
BSTAR
0.66397
Loading maneuver chart data...
Computing Atmospheric mass density...
Loading historical data...
Loading historical data...
Loading historical data...
Loading historical data...
Loading historical data...
Loading historical data...
Loading historical data...

Documentation

Showing up to 5 results
|